Nashville, TN

9:14 AM CDT on July 20, 2019 (GMT -0500)
Nashville International

Weather History for KBNA - May, 2019

Change the Weather History Date:

Tuesday, May 7, 2019

  Actual Average Record
Temperature  
Mean Temperature 70 °F 65 °F  
Max Temperature 85 °F 76 °F 89 °F (1952)
Min Temperature 54 °F 54 °F 37 °F (1944)
Degree Days  
Heating Degree Days 0    
Month to date heating degree days 3  
Since 1 July heating degree days 3196  
Cooling Degree Days 5    
Month to date cooling degree days 34  
Year to date cooling degree days 93  
Growing Degree Days 19 (Base 50)    
Moisture  
Dew Point 55 °F    
Average Humidity 58    
Maximum Humidity 86    
Minimum Humidity 37    
Precipitation  
Precipitation 0.00 in 0.19 in 2.52 in (2003)
Month to date precipitation 0.69 1.32  
Year to date precipitation 28.57 17.12  
Sea Level Pressure  
Sea Level Pressure 30.08 in    
Wind  
Wind Speed 2 mph (South)    
Max Wind Speed 12 mph    
Max Gust Speed 14 mph    
Visibility 10 miles    
Events      
T = Trace of Precipitation, MM = Missing Value Source: NWS Daily Summary

Daily Weather History Graph

Daily Weather History Graph

Search for Another Location

Airport or City:

Astronomy

May. 07, 2019 Rise Set
Actual Time 5:47 AM CDT 7:39 PM CDT
Civil Twilight 5:20 AM CDT 8:07 PM CDT
Nautical Twilight 4:46 AM CDT 8:41 PM CDT
Astronomical Twilight 4:10 AM CDT 9:17 PM CDT
Moon 7:55 AM CDT (5/7) 10:36 PM CDT (5/7)
Length of Visible Light 14h 47m
Length of Day
13h 51m
Waxing Crescent, 9% of the Moon is Illuminated
May 7
Waxing Crescent
May 11
First Quarter
May 18
Full
May 26
Last Quarter
Jun 3
New

Hourly Weather History & Observations

Time (CDT) Temp. Heat Index Dew Point Humidity Pressure Visibility Wind Dir Wind Speed Gust Speed Precip Events Conditions
12:53 AM 61.0 °F - 54.0 °F 78% 30.05 in 10.0 mi South 3.5 mph - N/A   Mostly Cloudy
1:53 AM 59.0 °F - 54.0 °F 83% 30.06 in 10.0 mi Calm Calm - N/A   Mostly Cloudy
2:53 AM 59.0 °F - 53.1 °F 81% 30.06 in 10.0 mi Calm Calm - N/A   Mostly Cloudy
3:53 AM 57.0 °F - 53.1 °F 87% 30.06 in 10.0 mi Calm Calm - N/A   Mostly Cloudy
4:53 AM 55.9 °F - 52.0 °F 87% 30.08 in 10.0 mi Calm Calm - N/A   Mostly Cloudy
5:53 AM 55.0 °F - 51.1 °F 86% 30.09 in 10.0 mi Calm Calm - N/A   Scattered Clouds
6:53 AM 57.0 °F - 53.1 °F 87% 30.12 in 10.0 mi Calm Calm - N/A   Scattered Clouds
7:53 AM 64.0 °F - 55.9 °F 75% 30.13 in 8.0 mi Calm Calm - N/A   Scattered Clouds
8:53 AM 72.0 °F - 57.0 °F 59% 30.14 in 10.0 mi Variable 3.5 mph - N/A   Mostly Cloudy
9:53 AM 77.0 °F - 54.0 °F 45% 30.14 in 10.0 mi NW 4.6 mph - N/A   Mostly Cloudy
10:53 AM 79.0 °F - 54.0 °F 42% 30.12 in 10.0 mi South 5.8 mph - N/A   Mostly Cloudy
11:53 AM 79.0 °F - 53.1 °F 40% 30.11 in 10.0 mi Calm Calm - N/A   Mostly Cloudy
12:53 PM 82.9 °F 82.0 °F 55.0 °F 38% 30.11 in 10.0 mi Variable 3.5 mph - N/A   Mostly Cloudy
1:53 PM 82.9 °F 81.9 °F 54.0 °F 37% 30.09 in 10.0 mi Calm Calm - N/A   Mostly Cloudy
2:53 PM 82.9 °F 81.8 °F 53.1 °F 36% 30.08 in 10.0 mi South 3.5 mph - N/A   Mostly Cloudy
3:53 PM 84.9 °F 83.6 °F 55.0 °F 36% 30.06 in 10.0 mi South 8.1 mph - N/A   Mostly Cloudy
4:53 PM 82.9 °F 82.0 °F 55.0 °F 38% 30.05 in 10.0 mi South 5.8 mph - N/A   Mostly Cloudy
5:53 PM 82.9 °F 82.0 °F 55.0 °F 38% 30.05 in 10.0 mi SSW 4.6 mph - N/A   Mostly Cloudy
6:53 PM 78.1 °F - 55.9 °F 46% 30.05 in 10.0 mi ESE 6.9 mph - N/A   Mostly Cloudy
7:53 PM 75.0 °F - 55.0 °F 50% 30.05 in 10.0 mi ESE 5.8 mph - N/A   Partly Cloudy
8:53 PM 72.0 °F - 55.9 °F 57% 30.06 in 10.0 mi Calm Calm - N/A   Partly Cloudy
9:53 PM 70.0 °F - 57.9 °F 65% 30.07 in 10.0 mi South 4.6 mph - N/A   Partly Cloudy
10:53 PM 68.0 °F - 57.9 °F 70% 30.06 in 10.0 mi Calm Calm - N/A   Clear
11:53 PM 66.0 °F - 57.9 °F 75% 30.06 in 10.0 mi Calm Calm - N/A   Clear